SWA204 KATL-KBNA

Flight info

Callsign SWA204
Flight time 0h 43m
Altitude 26000
Route PENCL2 PENCL JAGIR SWFFT3
Aircraft B738/M-SDE2E3FGHIRWXY/LB1

Departure

Time 2026-05-05 22:55
Airport Hartsfield Jackson Atlanta International Airport (KATL)

Arrival

Time 2026-05-05 23:39
Airport Nashville International Airport (KBNA)
Time Latitude Longitude Altitude Speed Heading
2026-05-05 22:34 33.64152 -84.43318 1018 ft 0 kts 90°
2026-05-05 22:45 33.64152 -84.43329 1019 ft 2 kts 90°
2026-05-05 22:45 33.64152 -84.43349 1019 ft 2 kts 91°
2026-05-05 22:45 33.64151 -84.43369 1019 ft 2 kts 87°
2026-05-05 22:45 33.64149 -84.43388 1019 ft 2 kts 46°
2026-05-05 22:46 33.64140 -84.43393 1019 ft 0 kts 357°
2026-05-05 22:47 33.64163 -84.43394 1019 ft 8 kts 358°
2026-05-05 22:48 33.64243 -84.43401 1023 ft 15 kts 353°
2026-05-05 22:48 33.64375 -84.43419 1025 ft 24 kts 353°
2026-05-05 22:48 33.64526 -84.43406 1030 ft 16 kts 37°
2026-05-05 22:48 33.64539 -84.43331 1031 ft 9 kts 96°
2026-05-05 22:49 33.64540 -84.43221 1031 ft 19 kts 86°
2026-05-05 22:49 33.64543 -84.43005 1027 ft 35 kts 90°
2026-05-05 22:49 33.64543 -84.42613 1018 ft 58 kts 90°
2026-05-05 22:49 33.64542 -84.42044 1012 ft 76 kts 91°
2026-05-05 22:50 33.64539 -84.41437 1013 ft 68 kts 95°
2026-05-05 22:50 33.64544 -84.40894 1003 ft 55 kts 91°
2026-05-05 22:50 33.64513 -84.40722 1000 ft 14 kts 86°
2026-05-05 22:50 33.64513 -84.40717 1000 ft 0 kts 87°
2026-05-05 22:53 33.64513 -84.40716 1000 ft 1 kts 87°
2026-05-05 22:54 33.64521 -84.40673 999 ft 8 kts 81°
2026-05-05 22:54 33.64529 -84.40636 1000 ft 10 kts 66°
2026-05-05 22:54 33.64604 -84.40571 1001 ft 18 kts 15°
2026-05-05 22:54 33.64686 -84.40634 999 ft 23 kts 286°
2026-05-05 22:55 33.64678 -84.41193 1010 ft 110 kts 270°
2026-05-05 22:55 33.64671 -84.42412 1079 ft 178 kts 268°
2026-05-05 22:55 33.64717 -84.43978 1781 ft 200 kts 270°
2026-05-05 22:55 33.64734 -84.45653 2904 ft 194 kts 267°
2026-05-05 22:56 33.65003 -84.47307 3702 ft 217 kts 294°
2026-05-05 22:56 33.65729 -84.49027 3997 ft 246 kts 293°
2026-05-05 22:56 33.66505 -84.50983 4490 ft 267 kts 292°
2026-05-05 22:56 33.67293 -84.53000 5341 ft 272 kts 292°
2026-05-05 22:57 33.68091 -84.55059 6282 ft 273 kts 292°
2026-05-05 22:57 33.69190 -84.56933 7123 ft 281 kts 317°
2026-05-05 22:57 33.70924 -84.58027 7988 ft 287 kts 343°
2026-05-05 22:57 33.72931 -84.58263 8846 ft 293 kts 358°
2026-05-05 22:58 33.74995 -84.58211 9649 ft 299 kts 359°
2026-05-05 22:58 33.77091 -84.58148 10442 ft 302 kts 359°
2026-05-05 22:58 33.79194 -84.58104 11262 ft 304 kts 358°
2026-05-05 22:58 33.81317 -84.58072 12068 ft 306 kts 358°
2026-05-05 22:59 33.83507 -84.58078 12428 ft 327 kts 357°
2026-05-05 22:59 33.85846 -84.58336 12582 ft 347 kts 345°
2026-05-05 22:59 33.88256 -84.59075 12779 ft 368 kts 342°
2026-05-05 22:59 33.90759 -84.59932 13227 ft 379 kts 342°
2026-05-05 23:00 33.95873 -84.61675 14639 ft 384 kts 342°
2026-05-05 23:00 33.98460 -84.62534 15277 ft 388 kts 342°
2026-05-05 23:00 34.01081 -84.63392 15867 ft 393 kts 342°
2026-05-05 23:01 34.03729 -84.64251 16535 ft 395 kts 342°
2026-05-05 23:01 34.06388 -84.65111 17203 ft 397 kts 341°
2026-05-05 23:01 34.09069 -84.65978 17828 ft 401 kts 341°
2026-05-05 23:01 34.11779 -84.66854 18420 ft 405 kts 341°
2026-05-05 23:02 34.14468 -84.67724 18956 ft 407 kts 341°
2026-05-05 23:02 34.17207 -84.68610 19494 ft 409 kts 341°
2026-05-05 23:02 34.19965 -84.69504 20048 ft 411 kts 341°
2026-05-05 23:02 34.22738 -84.70403 20565 ft 413 kts 341°
2026-05-05 23:03 34.25505 -84.71369 21078 ft 414 kts 335°
2026-05-05 23:03 34.28030 -84.73012 21570 ft 411 kts 324°
2026-05-05 23:03 34.30445 -84.74877 22100 ft 413 kts 324°
2026-05-05 23:03 34.32870 -84.76757 22559 ft 416 kts 324°
2026-05-05 23:04 34.35324 -84.78646 23020 ft 419 kts 324°
2026-05-05 23:04 34.37802 -84.80538 23462 ft 422 kts 324°
2026-05-05 23:04 34.40302 -84.82434 23817 ft 426 kts 324°
2026-05-05 23:04 34.42814 -84.84332 23973 ft 426 kts 324°
2026-05-05 23:05 34.45340 -84.86238 23980 ft 429 kts 324°
2026-05-05 23:05 34.47844 -84.88127 23989 ft 428 kts 324°
2026-05-05 23:05 34.50371 -84.90034 23994 ft 428 kts 324°
2026-05-05 23:05 34.52898 -84.91945 23987 ft 427 kts 324°
2026-05-05 23:06 34.55418 -84.93852 23987 ft 427 kts 324°
2026-05-05 23:06 34.57939 -84.95762 23984 ft 427 kts 324°
2026-05-05 23:06 34.60455 -84.97669 23980 ft 427 kts 324°
2026-05-05 23:06 34.62972 -84.99578 23972 ft 426 kts 324°
2026-05-05 23:07 34.65488 -85.01489 23975 ft 426 kts 324°
2026-05-05 23:07 34.67996 -85.03412 23970 ft 426 kts 324°
2026-05-05 23:07 34.70494 -85.05340 23976 ft 426 kts 324°
2026-05-05 23:07 34.72995 -85.07276 23972 ft 426 kts 324°
2026-05-05 23:08 34.75500 -85.09218 23970 ft 426 kts 324°
2026-05-05 23:08 34.77999 -85.11155 23968 ft 426 kts 324°
2026-05-05 23:08 34.80496 -85.13091 23966 ft 426 kts 324°
2026-05-05 23:08 34.82996 -85.15030 23964 ft 426 kts 324°
2026-05-05 23:09 34.85470 -85.16949 23961 ft 427 kts 324°
2026-05-05 23:09 34.88006 -85.18917 23962 ft 427 kts 324°
2026-05-05 23:09 34.90505 -85.20858 23953 ft 427 kts 324°
2026-05-05 23:09 34.93006 -85.22802 23957 ft 426 kts 324°
2026-05-05 23:10 34.95508 -85.24747 23958 ft 426 kts 324°
2026-05-05 23:10 34.97972 -85.26665 23959 ft 426 kts 324°
2026-05-05 23:10 35.00466 -85.28608 23961 ft 425 kts 324°
2026-05-05 23:10 35.02964 -85.30556 23957 ft 425 kts 324°
2026-05-05 23:11 35.05453 -85.32498 23961 ft 425 kts 324°
2026-05-05 23:11 35.07950 -85.34448 23969 ft 425 kts 324°
2026-05-05 23:11 35.10444 -85.36396 23965 ft 426 kts 324°
2026-05-05 23:11 35.12942 -85.38350 23957 ft 426 kts 324°
2026-05-05 23:12 35.15430 -85.40310 23955 ft 425 kts 322°
2026-05-05 23:12 35.17688 -85.42609 23959 ft 420 kts 312°
2026-05-05 23:12 35.19714 -85.45179 23935 ft 418 kts 310°
2026-05-05 23:12 35.21664 -85.47744 23662 ft 406 kts 310°
2026-05-05 23:13 35.23547 -85.50231 23508 ft 389 kts 310°
2026-05-05 23:13 35.25344 -85.52581 23444 ft 367 kts 310°
2026-05-05 23:13 35.27006 -85.54731 23685 ft 335 kts 310°
2026-05-05 23:13 35.28548 -85.56711 23637 ft 309 kts 310°
2026-05-05 23:14 35.29975 -85.58540 23551 ft 286 kts 310°
2026-05-05 23:14 35.31299 -85.60235 23415 ft 265 kts 309°
2026-05-05 23:14 35.32533 -85.61816 23307 ft 249 kts 309°
2026-05-05 23:14 35.33691 -85.63300 23191 ft 234 kts 309°
2026-05-05 23:15 35.34779 -85.64694 23019 ft 220 kts 309°
2026-05-05 23:15 35.35805 -85.66009 22794 ft 205 kts 308°
2026-05-05 23:15 35.36767 -85.67243 22493 ft 195 kts 308°
2026-05-05 23:15 35.37689 -85.68429 22213 ft 191 kts 308°
2026-05-05 23:16 35.38609 -85.69614 21928 ft 197 kts 308°
2026-05-05 23:16 35.39605 -85.70905 21743 ft 216 kts 308°
2026-05-05 23:16 35.40653 -85.72256 21758 ft 219 kts 308°
2026-05-05 23:16 35.41694 -85.73590 21551 ft 215 kts 308°
2026-05-05 23:17 35.42715 -85.74900 21185 ft 219 kts 308°
2026-05-05 23:17 35.43858 -85.76382 20817 ft 253 kts 308°
2026-05-05 23:17 35.45095 -85.77977 20721 ft 263 kts 309°
2026-05-05 23:17 35.46356 -85.79592 20573 ft 266 kts 309°
2026-05-05 23:18 35.47698 -85.81322 20356 ft 294 kts 309°
2026-05-05 23:18 35.49184 -85.83240 20012 ft 326 kts 310°
2026-05-05 23:18 35.50826 -85.85354 19592 ft 358 kts 310°
2026-05-05 23:18 35.52595 -85.87630 19210 ft 370 kts 310°
2026-05-05 23:19 35.54355 -85.89886 19014 ft 360 kts 310°
2026-05-05 23:19 35.56055 -85.92084 18764 ft 351 kts 309°
2026-05-05 23:19 35.57702 -85.94274 18449 ft 346 kts 308°
2026-05-05 23:19 35.59315 -85.96444 18127 ft 342 kts 308°
2026-05-05 23:20 35.60915 -85.98600 17790 ft 340 kts 308°
2026-05-05 23:20 35.62506 -86.00737 17446 ft 337 kts 308°
2026-05-05 23:20 35.64090 -86.02863 17141 ft 338 kts 308°
2026-05-05 23:20 35.65687 -86.05006 16829 ft 341 kts 308°
2026-05-05 23:21 35.67291 -86.07158 16510 ft 341 kts 308°
2026-05-05 23:21 35.68892 -86.09303 16192 ft 338 kts 308°
2026-05-05 23:21 35.70478 -86.11430 15884 ft 337 kts 308°
2026-05-05 23:21 35.72005 -86.13596 15566 ft 334 kts 304°
2026-05-05 23:22 35.73401 -86.15870 15249 ft 332 kts 302°
2026-05-05 23:22 35.74751 -86.18174 14964 ft 331 kts 302°
2026-05-05 23:22 35.76094 -86.20477 14659 ft 335 kts 302°
2026-05-05 23:22 35.77438 -86.22765 14347 ft 332 kts 302°
2026-05-05 23:23 35.78794 -86.25058 14017 ft 331 kts 302°
2026-05-05 23:23 35.80153 -86.27343 13714 ft 329 kts 302°
2026-05-05 23:23 35.81504 -86.29606 13376 ft 326 kts 303°
2026-05-05 23:23 35.82837 -86.31835 13062 ft 321 kts 302°
2026-05-05 23:24 35.83727 -86.33325 12845 ft 318 kts 302°
2026-05-05 23:24 35.85037 -86.35515 12553 ft 316 kts 302°
2026-05-05 23:24 35.86334 -86.37687 12263 ft 313 kts 302°
2026-05-05 23:24 35.87605 -86.39817 11991 ft 312 kts 302°
2026-05-05 23:25 35.89318 -86.42689 11602 ft 309 kts 302°
2026-05-05 23:25 35.90161 -86.44103 11408 ft 307 kts 302°
2026-05-05 23:25 35.91414 -86.46204 11125 ft 302 kts 302°
2026-05-05 23:25 35.92648 -86.48274 10866 ft 297 kts 302°
2026-05-05 23:26 35.93861 -86.50310 10602 ft 292 kts 302°
2026-05-05 23:26 35.95056 -86.52320 10345 ft 287 kts 302°
2026-05-05 23:26 35.96193 -86.54222 10556 ft 262 kts 301°
2026-05-05 23:26 35.97244 -86.55985 10436 ft 246 kts 301°
2026-05-05 23:27 35.98225 -86.57630 10341 ft 230 kts 300°
2026-05-05 23:27 35.99294 -86.59017 10216 ft 223 kts 321°
2026-05-05 23:27 36.00741 -86.59655 10128 ft 221 kts 343°
2026-05-05 23:27 36.02266 -86.59572 10018 ft 219 kts
2026-05-05 23:28 36.03717 -86.59038 9784 ft 217 kts 10°
2026-05-05 23:28 36.05144 -86.58446 9456 ft 215 kts 10°
2026-05-05 23:28 36.06546 -86.57868 9076 ft 215 kts 11°
2026-05-05 23:28 36.07976 -86.57287 8685 ft 217 kts 11°
2026-05-05 23:29 36.09404 -86.56709 8346 ft 215 kts 11°
2026-05-05 23:29 36.10833 -86.56181 7980 ft 213 kts
2026-05-05 23:29 36.12287 -86.55795 7621 ft 212 kts
2026-05-05 23:29 36.13736 -86.55444 7297 ft 211 kts
2026-05-05 23:30 36.15181 -86.55088 6938 ft 213 kts
2026-05-05 23:30 36.16630 -86.54711 6603 ft 212 kts
2026-05-05 23:30 36.18067 -86.54313 6290 ft 211 kts
2026-05-05 23:30 36.19505 -86.53907 5926 ft 212 kts
2026-05-05 23:31 36.20937 -86.53498 5568 ft 213 kts
2026-05-05 23:31 36.22405 -86.53201 5165 ft 219 kts
2026-05-05 23:31 36.23896 -86.52762 4856 ft 221 kts 10°
2026-05-05 23:31 36.25387 -86.52247 4588 ft 218 kts 11°
2026-05-05 23:32 36.26847 -86.51746 4253 ft 218 kts 11°
2026-05-05 23:32 36.28294 -86.51214 4045 ft 216 kts 13°
2026-05-05 23:32 36.29763 -86.50710 3976 ft 220 kts
2026-05-05 23:32 36.31167 -86.51153 3706 ft 203 kts 312°
2026-05-05 23:33 36.31892 -86.52481 3485 ft 181 kts 278°
2026-05-05 23:33 36.32071 -86.53963 3241 ft 170 kts 256°
2026-05-05 23:33 36.31773 -86.55316 3072 ft 158 kts 236°
2026-05-05 23:33 36.31142 -86.56386 3025 ft 151 kts 217°
2026-05-05 23:34 36.30277 -86.57111 3012 ft 152 kts 212°
2026-05-05 23:34 36.29387 -86.57843 3003 ft 153 kts 212°
2026-05-05 23:34 36.28492 -86.58574 2997 ft 154 kts 211°
2026-05-05 23:34 36.27600 -86.59297 3000 ft 151 kts 211°
2026-05-05 23:35 36.26731 -86.59998 2991 ft 147 kts 210°
2026-05-05 23:35 36.25872 -86.60689 2997 ft 152 kts 211°
2026-05-05 23:35 36.24901 -86.61333 2998 ft 159 kts 200°
2026-05-05 23:35 36.23875 -86.61750 2990 ft 151 kts 198°
2026-05-05 23:36 36.22891 -86.62136 2984 ft 147 kts 197°
2026-05-05 23:36 36.21915 -86.62522 3000 ft 148 kts 198°
2026-05-05 23:36 36.20931 -86.62913 2994 ft 149 kts 198°
2026-05-05 23:36 36.19942 -86.63302 2945 ft 149 kts 198°
2026-05-05 23:37 36.18950 -86.63679 2711 ft 150 kts 199°
2026-05-05 23:37 36.17958 -86.64074 2327 ft 150 kts 199°
2026-05-05 23:37 36.16953 -86.64478 1854 ft 153 kts 198°
2026-05-05 23:37 36.15995 -86.64863 1672 ft 134 kts 199°
2026-05-05 23:38 36.15122 -86.65215 1248 ft 134 kts 199°
2026-05-05 23:38 36.14214 -86.65580 928 ft 136 kts 196°
2026-05-05 23:38 36.13303 -86.65956 602 ft 137 kts 195°
2026-05-05 23:38 36.12451 -86.66295 572 ft 114 kts 195°
2026-05-05 23:39 36.11934 -86.66492 583 ft 36 kts 198°
2026-05-05 23:39 36.11724 -86.66583 591 ft 23 kts 203°
2026-05-05 23:39 36.11656 -86.66704 594 ft 14 kts 285°
2026-05-05 23:39 36.11675 -86.66738 594 ft 0 kts 328°
2026-05-05 23:40 36.11686 -86.66740 593 ft 2 kts
2026-05-05 23:40 36.11728 -86.66730 592 ft 10 kts 14°
2026-05-05 23:40 36.11810 -86.66693 589 ft 15 kts 19°
2026-05-05 23:40 36.11918 -86.66649 586 ft 11 kts 16°
2026-05-05 23:41 36.11988 -86.66623 585 ft 11 kts 17°
2026-05-05 23:41 36.12063 -86.66595 583 ft 12 kts 18°
2026-05-05 23:41 36.12155 -86.66558 579 ft 16 kts 18°
2026-05-05 23:41 36.12261 -86.66548 574 ft 16 kts 315°
2026-05-05 23:42 36.12313 -86.66668 580 ft 16 kts 291°
2026-05-05 23:42 36.12348 -86.66793 581 ft 15 kts 288°
2026-05-05 23:42 36.12404 -86.66897 581 ft 14 kts 313°
2026-05-05 23:42 36.12473 -86.66956 582 ft 10 kts 359°
2026-05-05 23:43 36.12541 -86.66929 580 ft 11 kts 25°
2026-05-05 23:43 36.12611 -86.66923 579 ft 10 kts 346°
2026-05-05 23:43 36.12685 -86.66942 577 ft 11 kts
2026-05-05 23:43 36.12738 -86.66936 580 ft 0 kts